This is the latest recevied weather packets stored in our database for station/object DL7HMX-13. If no packets are shown the sender has not sent any weather packets the latest 10 day(s).
| Time | Temp. | Humidity | Pressure | Rain* | Wind** | Luminosity | Snow |
|---|---|---|---|---|---|---|---|
| 1777479016 | 16.11° C | 29% | 1022.1 hPa | 0 mm | - | 181 W/m² | - |
| 1777478419 | 16.67° C | 29% | 1022 hPa | 0 mm | - | 205 W/m² | - |
| 1777477821 | 16.67° C | 28% | 1021.8 hPa | 0 mm | - | 233 W/m² | - |
| 1777477224 | 16.67° C | 28% | 1021.9 hPa | 0 mm | - | 259 W/m² | - |
| 1777476625 | 16.67° C | 28% | 1021.9 hPa | 0 mm | - | 285 W/m² | - |
| 1777476028 | 17.22° C | 28% | 1021.8 hPa | 0 mm | - | 309 W/m² | - |
| 1777475430 | 17.22° C | 27% | 1021.7 hPa | 0 mm | - | 335 W/m² | - |
| 1777474816 | 16.67° C | 27% | 1021.9 hPa | 0 mm | - | 362 W/m² | - |
| 1777474218 | 17.22° C | 27% | 1021.7 hPa | 0 mm | - | 390 W/m² | - |
| 1777473622 | 17.22° C | 27% | 1021.7 hPa | 0 mm | - | 417 W/m² | - |
| 1777473024 | 16.67° C | 27% | 1021.6 hPa | 0 mm | - | 447 W/m² | - |
| 1777472426 | 17.22° C | 27% | 1021.6 hPa | 0 mm | - | 471 W/m² | - |
| 1777471829 | 17.22° C | 27% | 1021.7 hPa | 0 mm | - | 482 W/m² | - |
| 1777471233 | 17.22° C | 26% | 1021.7 hPa | 0 mm | - | 513 W/m² | - |
| 1777470619 | 17.22° C | 25% | 1021.7 hPa | 0 mm | - | 538 W/m² | - |
| 1777470022 | 16.67° C | 25% | 1021.6 hPa | 0 mm | - | 560 W/m² | - |
| 1777469423 | 17.22° C | 26% | 1021.7 hPa | 0 mm | - | 574 W/m² | - |
| 1777468827 | 17.78° C | 26% | 1021.6 hPa | 0 mm | - | 588 W/m² | - |
| 1777468229 | 16.67° C | 26% | 1021.8 hPa | 0 mm | - | 600 W/m² | - |
| 1777467632 | 17.22° C | 26% | 1021.7 hPa | 0 mm | - | 610 W/m² | - |
| 1777467018 | 16.67° C | 27% | 1021.7 hPa | 0 mm | - | 623 W/m² | - |
| 1777466422 | 16.67° C | 28% | 1021.7 hPa | 0 mm | - | 631 W/m² | - |
| 1777465824 | 16.11° C | 27% | 1021.8 hPa | 0 mm | - | 635 W/m² | - |
| 1777465227 | 16.11° C | 27% | 1021.7 hPa | 0 mm | - | 637 W/m² | - |
| 1777464629 | 16.11° C | 28% | 1021.8 hPa | 0 mm | - | 639 W/m² | - |
* Rain latest hour (hover to see other rain measurements)
** Current wind speed in m/s (hover to see current wind gust speed)